| time (UTC) | temp C | wind direction | speed KPH | gust KPH | rain 1hr cm | rain 24hr cm | rain mn cm | humidity % | barometer mb |
| 20260503005842 | 6 | 219 | 0.0 | 3.2 | 0.00 | 0.00 | 0.00 | 58 | 1014.6 |
| 20260503005337 | 6 | 200 | 0.0 | 0.0 | 0.00 | 0.00 | 0.00 | 57 | 1014.6 |
| 20260503004826 | 6 | 200 | 0.0 | 0.0 | 0.00 | 0.00 | 0.00 | 57 | 1014.5 |
| 20260503004324 | 7 | 200 | 0.0 | 0.0 | 0.00 | 0.00 | 0.00 | 57 | 1014.6 |
| 20260503003819 | 7 | 200 | 0.0 | 3.2 | 0.00 | 0.00 | 0.00 | 56 | 1014.6 |
| 20260503003312 | 7 | 200 | 1.6 | 3.2 | 0.00 | 0.00 | 0.00 | 54 | 1014.5 |
| 20260503002807 | 7 | 200 | 1.6 | 3.2 | 0.00 | 0.00 | 0.00 | 54 | 1014.6 |
| 20260503002256 | 7 | 200 | 0.0 | 6.4 | 0.00 | 0.00 | 0.00 | 54 | 1014.6 |
| 20260503001755 | 8 | 200 | 0.0 | 6.4 | 0.00 | 0.00 | 0.00 | 53 | 1014.5 |
| 20260503001248 | 8 | 249 | 0.0 | 4.8 | 0.00 | 0.00 | 0.00 | 53 | 1014.5 |
| 20260503000958 | 8 | 249 | 1.6 | 4.8 | 0.00 | 0.00 | 0.00 | 52 | 1014.5 |
| 20260503000457 | 8 | 224 | 3.2 | 6.4 | 0.00 | 0.00 | 0.00 | 52 | 1014.5 |
| 20260502235952 | 8 | 284 | 3.2 | 8.0 | 0.00 | 0.00 | 0.00 | 51 | 1014.5 |
| 20260502235224 | 8 | 267 | 4.8 | 9.7 | 0.00 | 0.00 | 0.00 | 50 | 1014.5 |
| 20260502234714 | 8 | 287 | 4.8 | 12.9 | 0.00 | 0.00 | 0.00 | 48 | 1014.5 |
| 20260502234212 | 8 | 280 | 4.8 | 12.9 | 0.00 | 0.00 | 0.00 | 48 | 1014.5 |
| 20260502233707 | 8 | 248 | 3.2 | 11.3 | 0.00 | 0.00 | 0.00 | 49 | 1014.5 |
| 20260502233200 | 8 | 271 | 3.2 | 8.0 | 0.00 | 0.00 | 0.00 | 49 | 1014.6 |
| 20260502232654 | 8 | 279 | 4.8 | 9.7 | 0.00 | 0.00 | 0.00 | 48 | 1014.6 |
| 20260502232145 | 9 | 299 | 4.8 | 16.1 | 0.00 | 0.00 | 0.00 | 47 | 1014.7 |
| 20260502231642 | 9 | 294 | 4.8 | 16.1 | 0.00 | 0.00 | 0.00 | 47 | 1014.6 |
| 20260502231132 | 8 | 288 | 6.4 | 12.9 | 0.00 | 0.00 | 0.00 | 47 | 1014.6 |
| 20260502230630 | 8 | 242 | 6.4 | 16.1 | 0.00 | 0.00 | 0.00 | 47 | 1014.6 |
| 20260502230353 | 8 | 192 | 8.0 | 16.1 | 0.00 | 0.00 | 0.00 | 47 | 1014.7 |
| 20260502225619 | 8 | 267 | 4.8 | 14.5 | 0.00 | 0.00 | 0.00 | 47 | 1014.7 |
| 20260502225113 | 8 | 259 | 4.8 | 11.3 | 0.00 | 0.00 | 0.00 | 48 | 1014.7 |
| 20260502224819 | 8 | 300 | 4.8 | 11.3 | 0.00 | 0.00 | 0.00 | 47 | 1014.7 |
| 20260502224100 | 8 | 244 | 4.8 | 16.1 | 0.00 | 0.00 | 0.00 | 47 | 1014.7 |
| 20260502223554 | 8 | 291 | 4.8 | 16.1 | 0.00 | 0.00 | 0.00 | 47 | 1014.8 |
| 20260502223316 | 8 | 319 | 3.2 | 8.0 | 0.00 | 0.00 | 0.00 | 47 | 1014.7 |
| 20260502222542 | 8 | 288 | 4.8 | 12.9 | 0.00 | 0.00 | 0.00 | 46 | 1014.7 |
| 20260502222032 | 8 | 334 | 6.4 | 12.9 | 0.00 | 0.00 | 0.00 | 46 | 1014.7 |
| 20260502221753 | 8 | 281 | 6.4 | 12.9 | 0.00 | 0.00 | 0.00 | 46 | 1014.7 |
| 20260502221024 | 8 | 295 | 4.8 | 12.9 | 0.00 | 0.00 | 0.00 | 47 | 1014.8 |
| 20260502220518 | 9 | 292 | 4.8 | 12.9 | 0.00 | 0.00 | 0.00 | 45 | 1014.7 |
| 20260502220233 | 9 | 278 | 4.8 | 9.7 | 0.00 | 0.00 | 0.00 | 46 | 1014.6 |
| 20260502215507 | 9 | 285 | 6.4 | 14.5 | 0.00 | 0.00 | 0.00 | 47 | 1014.7 |
| 20260502215001 | 8 | 270 | 6.4 | 14.5 | 0.00 | 0.00 | 0.00 | 47 | 1014.6 |
| 20260502214710 | 8 | 299 | 4.8 | 11.3 | 0.00 | 0.00 | 0.00 | 47 | 1014.7 |
| 20260502213948 | 8 | 244 | 4.8 | 11.3 | 0.00 | 0.00 | 0.00 | 47 | 1014.8 |
| 20260502213702 | 8 | 257 | 6.4 | 14.5 | 0.00 | 0.00 | 0.00 | 46 | 1014.7 |
| 20260502212937 | 8 | 273 | 8.0 | 17.7 | 0.00 | 0.00 | 0.00 | 46 | 1014.7 |
| 20260502212430 | 8 | 292 | 6.4 | 17.7 | 0.00 | 0.00 | 0.00 | 45 | 1014.7 |
| 20260502211920 | 9 | 269 | 6.4 | 12.9 | 0.00 | 0.00 | 0.00 | 47 | 1014.7 |
| 20260502211419 | 9 | 215 | 6.4 | 16.1 | 0.00 | 0.00 | 0.00 | 44 | 1014.7 |
| 20260502210913 | 9 | 304 | 6.4 | 16.1 | 0.00 | 0.00 | 0.00 | 44 | 1014.8 |
| 20260502210406 | 9 | 263 | 6.4 | 12.9 | 0.00 | 0.00 | 0.00 | 45 | 1014.9 |
| 20260502205900 | 8 | 279 | 9.7 | 22.5 | 0.00 | 0.00 | 0.00 | 46 | 1014.9 |
| 20260502205355 | 8 | 289 | 8.0 | 22.5 | 0.00 | 0.00 | 0.00 | 45 | 1015.0 |
| 20260502204848 | 8 | 180 | 6.4 | 17.7 | 0.00 | 0.00 | 0.00 | 47 | 1015.0 |
| 20260502204559 | 8 | 296 | 8.0 | 17.7 | 0.00 | 0.00 | 0.00 | 45 | 1015.0 |
| 20260502203836 | 8 | 277 | 8.0 | 14.5 | 0.00 | 0.00 | 0.00 | 46 | 1015.0 |
| 20260502203331 | 8 | 271 | 8.0 | 17.7 | 0.00 | 0.00 | 0.00 | 45 | 1015.1 |
| 20260502202824 | 8 | 288 | 8.0 | 17.7 | 0.00 | 0.00 | 0.00 | 45 | 1015.1 |
| 20260502202541 | 8 | 229 | 6.4 | 16.1 | 0.00 | 0.00 | 0.00 | 45 | 1015.1 |
| 20260502201808 | 8 | 230 | 8.0 | 16.1 | 0.00 | 0.00 | 0.00 | 45 | 1015.1 |
| 20260502201306 | 8 | 275 | 6.4 | 22.5 | 0.00 | 0.00 | 0.00 | 44 | 1015.2 |
| 20260502200800 | 8 | 262 | 4.8 | 22.5 | 0.00 | 0.00 | 0.00 | 45 | 1015.3 |
| 20260502200255 | 8 | 275 | 6.4 | 14.5 | 0.00 | 0.00 | 0.00 | 46 | 1015.3 |
| 20260502195748 | 8 | 251 | 4.8 | 12.9 | 0.00 | 0.00 | 0.00 | 47 | 1015.3 |
| 20260502195238 | 8 | 281 | 4.8 | 16.1 | 0.00 | 0.00 | 0.00 | 45 | 1015.3 |
| 20260502194737 | 8 | 300 | 6.4 | 16.1 | 0.00 | 0.00 | 0.00 | 45 | 1015.4 |
| 20260502194230 | 8 | 242 | 8.0 | 16.1 | 0.00 | 0.00 | 0.00 | 46 | 1015.4 |
| 20260502193724 | 8 | 267 | 6.4 | 16.1 | 0.00 | 0.00 | 0.00 | 45 | 1015.5 |
| 20260502193713 | 8 | 284 | 6.4 | 12.9 | 0.00 | 0.00 | 0.00 | 44 | 1015.5 |
| 20260502192713 | 8 | 316 | 8.0 | 14.5 | 0.00 | 0.00 | 0.00 | 44 | 1015.6 |
| 20260502192206 | 8 | 300 | 6.4 | 14.5 | 0.00 | 0.00 | 0.00 | 43 | 1015.6 |
| 20260502191656 | 8 | 271 | 4.8 | 16.1 | 0.00 | 0.00 | 0.00 | 43 | 1015.6 |
| 20260502191154 | 8 | 267 | 6.4 | 16.1 | 0.00 | 0.00 | 0.00 | 44 | 1015.7 |
| 20260502190649 | 8 | 297 | 6.4 | 16.1 | 0.00 | 0.00 | 0.00 | 43 | 1015.8 |
| 20260502190409 | 8 | 268 | 6.4 | 19.3 | 0.00 | 0.00 | 0.00 | 45 | 1015.8 |
| 20260502185636 | 8 | 304 | 4.8 | 19.3 | 0.00 | 0.00 | 0.00 | 43 | 1015.7 |
| 20260502185127 | 8 | 355 | 6.4 | 12.9 | 0.00 | 0.00 | 0.00 | 43 | 1015.8 |
| 20260502184625 | 8 | 174 | 6.4 | 12.9 | 0.00 | 0.00 | 0.00 | 43 | 1015.7 |
| 20260502184119 | 8 | 198 | 8.0 | 14.5 | 0.00 | 0.00 | 0.00 | 45 | 1015.8 |
| 20260502183612 | 8 | 251 | 8.0 | 16.1 | 0.00 | 0.00 | 0.00 | 44 | 1016.0 |
| 20260502183326 | 8 | 336 | 6.4 | 17.7 | 0.00 | 0.00 | 0.00 | 43 | 1015.8 |
| 20260502182600 | 8 | 288 | 9.7 | 20.9 | 0.00 | 0.00 | 0.00 | 43 | 1016.0 |
| 20260502182055 | 8 | 333 | 9.7 | 20.9 | 0.00 | 0.00 | 0.00 | 43 | 1016.1 |
| 20260502181544 | 8 | 254 | 6.4 | 20.9 | 0.00 | 0.00 | 0.00 | 45 | 1016.0 |
| 20260502181303 | 8 | 233 | 6.4 | 17.7 | 0.00 | 0.00 | 0.00 | 43 | 1016.0 |
| 20260502180754 | 8 | 298 | 8.0 | 19.3 | 0.00 | 0.00 | 0.00 | 43 | 1016.1 |
| 20260502170424 | 7 | 289 | 6.4 | 17.7 | 0.00 | 0.00 | 0.00 | 46 | 1016.6 |
| 20260502163855 | 7 | 284 | 6.4 | 16.1 | 0.00 | 0.00 | 0.00 | 47 | 1016.8 |
| 20260502163349 | 7 | 290 | 4.8 | 16.1 | 0.00 | 0.00 | 0.00 | 48 | 1016.8 |
| 20260502162842 | 7 | 238 | 4.8 | 11.3 | 0.00 | 0.00 | 0.00 | 47 | 1016.7 |
| 20260502162337 | 7 | 309 | 6.4 | 17.7 | 0.00 | 0.00 | 0.00 | 50 | 1016.7 |
| 20260502161830 | 7 | 238 | 8.0 | 17.7 | 0.00 | 0.00 | 0.00 | 49 | 1016.7 |
| 20260502161324 | 7 | 241 | 8.0 | 17.7 | 0.00 | 0.00 | 0.00 | 49 | 1016.7 |
| 20260502160824 | 7 | 290 | 8.0 | 17.7 | 0.00 | 0.00 | 0.00 | 48 | 1016.8 |
| 20260502160324 | 7 | 321 | 8.0 | 17.7 | 0.00 | 0.00 | 0.00 | 49 | 1016.7 |
| 20260502152320 | 8 | 263 | 6.4 | 12.9 | 0.00 | 0.00 | 0.00 | 48 | 1016.6 |
| 20260502152040 | 7 | 220 | 6.4 | 12.9 | 0.00 | 0.00 | 0.00 | 51 | 1016.6 |
| 20260502151320 | 7 | 39 | 6.4 | 20.9 | 0.00 | 0.00 | 0.00 | 51 | 1016.7 |
| 20260502150818 | 6 | 288 | 6.4 | 20.9 | 0.00 | 0.00 | 0.00 | 50 | 1016.7 |
| 20260502150809 | 6 | 73 | 6.4 | 12.9 | 0.00 | 0.00 | 0.00 | 52 | 1016.6 |
| 20260502130744 | 5 | 347 | 4.8 | 14.5 | 0.00 | 0.00 | 0.00 | 65 | 1016.8 |
| 20260502130238 | 5 | 355 | 4.8 | 12.9 | 0.00 | 0.00 | 0.00 | 66 | 1016.8 |
| 20260502123723 | 5 | 252 | 4.8 | 14.5 | 0.00 | 0.00 | 0.00 | 69 | 1016.6 |
| 20260502123222 | 4 | 326 | 4.8 | 9.7 | 0.00 | 0.00 | 0.00 | 69 | 1016.6 |
| 20260502122722 | 4 | 330 | 4.8 | 11.3 | 0.00 | 0.00 | 0.00 | 70 | 1016.6 |
| 20260502122222 | 4 | 298 | 4.8 | 11.3 | 0.00 | 0.00 | 0.00 | 71 | 1016.6 |
| 20260502121720 | 3 | 300 | 4.8 | 11.3 | 0.00 | 0.00 | 0.00 | 71 | 1016.6 |
| 20260502121221 | 3 | 309 | 3.2 | 11.3 | 0.00 | 0.00 | 0.00 | 72 | 1016.7 |
| 20260502120721 | 3 | 36 | 3.2 | 8.0 | 0.00 | 0.00 | 0.00 | 73 | 1016.6 |
| 20260502120222 | 3 | 304 | 4.8 | 12.9 | 0.00 | 0.00 | 0.00 | 73 | 1016.5 |
| 20260502115723 | 3 | 244 | 4.8 | 12.9 | 0.00 | 0.00 | 0.00 | 74 | 1016.5 |
| 20260502115216 | 3 | 30 | 6.4 | 11.3 | 0.00 | 0.00 | 0.00 | 75 | 1016.5 |
| 20260502114705 | 2 | 302 | 3.2 | 11.3 | 0.00 | 0.00 | 0.00 | 75 | 1016.5 |
| 20260502114204 | 2 | 312 | 3.2 | 12.9 | 0.00 | 0.00 | 0.00 | 77 | 1016.5 |
| 20260502113706 | 2 | 40 | 3.2 | 12.9 | 0.00 | 0.00 | 0.00 | 77 | 1016.4 |
| 20260502113205 | 2 | 11 | 3.2 | 11.3 | 0.00 | 0.00 | 0.00 | 79 | 1016.3 |
| 20260502112704 | 2 | 337 | 1.6 | 11.3 | 0.00 | 0.00 | 0.00 | 80 | 1016.3 |
| 20260502112204 | 1 | 292 | 1.6 | 8.0 | 0.00 | 0.00 | 0.00 | 80 | 1016.3 |
| 20260502111704 | 1 | 305 | 1.6 | 8.0 | 0.00 | 0.00 | 0.00 | 81 | 1016.3 |
| 20260502111204 | 1 | 278 | 1.6 | 4.8 | 0.00 | 0.00 | 0.00 | 82 | 1016.2 |
| 20260502110705 | 1 | 347 | 1.6 | 8.0 | 0.00 | 0.00 | 0.00 | 83 | 1016.1 |
| 20260502110159 | 1 | 336 | 1.6 | 8.0 | 0.00 | 0.00 | 0.00 | 83 | 1016.1 |
| 20260502105648 | 1 | 325 | 1.6 | 6.4 | 0.00 | 0.00 | 0.00 | 84 | 1016.1 |
| 20260502105148 | 1 | 312 | 1.6 | 4.8 | 0.00 | 0.00 | 0.00 | 84 | 1016.1 |
| 20260502104649 | 1 | 312 | 1.6 | 4.8 | 0.00 | 0.00 | 0.00 | 85 | 1016.0 |
| 20260502104148 | 1 | 308 | 1.6 | 6.4 | 0.00 | 0.00 | 0.00 | 85 | 1016.0 |
| 20260502103648 | 1 | 268 | 1.6 | 6.4 | 0.00 | 0.00 | 0.00 | 86 | 1016.0 |
| 20260502103151 | 1 | 290 | 1.6 | 4.8 | 0.00 | 0.00 | 0.00 | 87 | 1016.1 |
| 20260502102651 | 1 | 320 | 1.6 | 4.8 | 0.00 | 0.00 | 0.00 | 87 | 1016.0 |
| 20260502102148 | 1 | 288 | 1.6 | 4.8 | 0.00 | 0.00 | 0.00 | 87 | 1016.0 |
| 20260502101648 | 1 | 310 | 1.6 | 4.8 | 0.00 | 0.00 | 0.00 | 87 | 1015.8 |
| 20260502101142 | 1 | 262 | 1.6 | 4.8 | 0.00 | 0.00 | 0.00 | 88 | 1016.0 |
| 20260502100632 | 1 | 286 | 1.6 | 4.8 | 0.00 | 0.00 | 0.00 | 88 | 1015.8 |
| 20260502100624 | 1 | 298 | 1.6 | 6.4 | 0.00 | 0.00 | 0.00 | 88 | 1015.8 |
| 20260502091341 | 2 | 28 | 0.0 | 4.8 | 0.00 | 0.00 | 0.00 | 85 | 1015.6 |
| 20260502090616 | 2 | 76 | 0.0 | 3.2 | 0.00 | 0.00 | 0.00 | 85 | 1015.5 |
| 20260502090116 | 2 | 76 | 1.6 | 3.2 | 0.00 | 0.00 | 0.00 | 85 | 1015.5 |
| 20260502071044 | 3 | 55 | 0.0 | 1.6 | 0.00 | 0.00 | 0.00 | 82 | 1015.1 |
| 20260502070544 | 3 | 55 | 0.0 | 3.2 | 0.00 | 0.00 | 0.00 | 82 | 1015.2 |
| 20260502070044 | 3 | 55 | 0.0 | 3.2 | 0.00 | 0.00 | 0.00 | 81 | 1015.2 |
| 20260502065544 | 3 | 55 | 0.0 | 1.6 | 0.00 | 0.00 | 0.00 | 81 | 1015.2 |
| 20260502065038 | 3 | 55 | 1.6 | 4.8 | 0.00 | 0.00 | 0.00 | 81 | 1015.3 |
| 20260502064528 | 3 | 55 | 1.6 | 4.8 | 0.00 | 0.00 | 0.00 | 81 | 1015.3 |
| 20260502064245 | 3 | 63 | 1.6 | 4.8 | 0.00 | 0.00 | 0.00 | 81 | 1015.4 |
| 20260502063527 | 3 | 63 | 3.2 | 4.8 | 0.00 | 0.00 | 0.00 | 80 | 1015.4 |
| 20260502063028 | 3 | 63 | 3.2 | 4.8 | 0.00 | 0.00 | 0.00 | 80 | 1015.4 |
| 20260502062528 | 3 | 40 | 3.2 | 6.4 | 0.00 | 0.00 | 0.00 | 80 | 1015.4 |
| 20260502062028 | 3 | 32 | 3.2 | 6.4 | 0.00 | 0.00 | 0.00 | 80 | 1015.5 |
| 20260502061748 | 3 | 68 | 3.2 | 8.0 | 0.00 | 0.00 | 0.00 | 80 | 1015.6 |
| 20260502061248 | 3 | 89 | 3.2 | 8.0 | 0.00 | 0.00 | 0.00 | 80 | 1015.5 |
| 20260502060530 | 4 | 51 | 3.2 | 6.4 | 0.00 | 0.00 | 0.00 | 80 | 1015.6 |
| 20260502060249 | 4 | 57 | 3.2 | 6.4 | 0.00 | 0.00 | 0.00 | 79 | 1015.6 |
| 20260502055746 | 4 | 75 | 3.2 | 8.0 | 0.00 | 0.00 | 0.00 | 79 | 1015.6 |
| 20260502055018 | 4 | 72 | 3.2 | 8.0 | 0.00 | 0.00 | 0.00 | 79 | 1015.6 |
| 20260502054738 | 4 | 53 | 3.2 | 8.0 | 0.00 | 0.00 | 0.00 | 78 | 1015.7 |
| 20260502054016 | 4 | 59 | 3.2 | 11.3 | 0.00 | 0.00 | 0.00 | 78 | 1015.7 |
| 20260502053514 | 4 | 97 | 4.8 | 11.3 | 0.00 | 0.00 | 0.00 | 78 | 1015.6 |
| 20260502053011 | 4 | 55 | 4.8 | 8.0 | 0.00 | 0.00 | 0.00 | 78 | 1015.6 |
| 20260502052512 | 4 | 40 | 3.2 | 8.0 | 0.00 | 0.00 | 0.00 | 77 | 1015.7 |
| 20260502052010 | 4 | 66 | 3.2 | 8.0 | 0.00 | 0.00 | 0.00 | 77 | 1015.7 |
| 20260502051510 | 4 | 75 | 4.8 | 12.9 | 0.00 | 0.00 | 0.00 | 76 | 1015.7 |
| 20260502051238 | 4 | 83 | 6.4 | 14.5 | 0.00 | 0.00 | 0.00 | 76 | 1015.7 |
| 20260502050510 | 4 | 76 | 6.4 | 14.5 | 0.00 | 0.00 | 0.00 | 76 | 1015.6 |
| 20260502050011 | 5 | 81 | 4.8 | 12.9 | 0.00 | 0.00 | 0.00 | 75 | 1015.6 |
| 20260502045506 | 5 | 62 | 4.8 | 12.9 | 0.00 | 0.00 | 0.00 | 75 | 1015.6 |
| 20260502045000 | 5 | 39 | 4.8 | 12.9 | 0.00 | 0.00 | 0.00 | 74 | 1015.5 |
| 20260502044455 | 5 | 35 | 4.8 | 12.9 | 0.00 | 0.00 | 0.00 | 74 | 1015.5 |
| 20260502043949 | 5 | 54 | 6.4 | 14.5 | 0.00 | 0.00 | 0.00 | 73 | 1015.5 |
| 20260502043436 | 5 | 65 | 4.8 | 14.5 | 0.00 | 0.00 | 0.00 | 73 | 1015.4 |
| 20260502043154 | 5 | 57 | 3.2 | 14.5 | 0.00 | 0.00 | 0.00 | 74 | 1015.3 |
| 20260502042425 | 5 | 35 | 3.2 | 8.0 | 0.00 | 0.00 | 0.00 | 74 | 1015.2 |
| 20260502042144 | 5 | 340 | 3.2 | 8.0 | 0.00 | 0.00 | 0.00 | 74 | 1015.2 |
| 20260502041418 | 5 | 283 | 1.6 | 6.4 | 0.00 | 0.00 | 0.00 | 75 | 1015.1 |
| 20260502040914 | 5 | 292 | 1.6 | 3.2 | 0.00 | 0.00 | 0.00 | 75 | 1015.1 |
| 20260502040406 | 5 | 292 | 0.0 | 1.6 | 0.00 | 0.00 | 0.00 | 75 | 1015.0 |
| 20260502040121 | 5 | 292 | 0.0 | 0.0 | 0.00 | 0.00 | 0.00 | 75 | 1015.0 |
| 20260502035353 | 5 | 292 | 0.0 | 0.0 | 0.00 | 0.00 | 0.00 | 74 | 1015.0 |
| 20260502034849 | 5 | 292 | 0.0 | 0.0 | 0.00 | 0.00 | 0.00 | 74 | 1014.9 |
| 20260502034341 | 5 | 292 | 0.0 | 0.0 | 0.00 | 0.00 | 0.00 | 73 | 1014.9 |
| 20260502033832 | 5 | 292 | 0.0 | 0.0 | 0.00 | 0.00 | 0.00 | 73 | 1014.8 |
| 20260502033329 | 5 | 292 | 0.0 | 1.6 | 0.00 | 0.00 | 0.00 | 72 | 1014.8 |
| 20260502032823 | 5 | 292 | 0.0 | 3.2 | 0.00 | 0.00 | 0.00 | 72 | 1014.8 |
| 20260502032317 | 5 | 292 | 0.0 | 4.8 | 0.00 | 0.00 | 0.00 | 71 | 1014.8 |
| 20260502031810 | 5 | 292 | 0.0 | 4.8 | 0.00 | 0.00 | 0.00 | 71 | 1014.8 |
| 20260502031305 | 5 | 330 | 1.6 | 8.0 | 0.00 | 0.00 | 0.00 | 71 | 1014.9 |
| 20260502030759 | 5 | 327 | 3.2 | 8.0 | 0.00 | 0.00 | 0.00 | 71 | 1014.8 |
| 20260502030248 | 5 | 279 | 1.6 | 4.8 | 0.00 | 0.00 | 0.00 | 71 | 1014.8 |
| 20260502025747 | 5 | 313 | 1.6 | 4.8 | 0.00 | 0.00 | 0.00 | 71 | 1014.8 |
| 20260502025241 | 5 | 309 | 3.2 | 4.8 | 0.00 | 0.00 | 0.00 | 71 | 1014.8 |
| 20260502024735 | 5 | 326 | 3.2 | 6.4 | 0.00 | 0.00 | 0.00 | 71 | 1014.8 |
| 20260502024229 | 5 | 284 | 3.2 | 9.7 | 0.00 | 0.00 | 0.00 | 70 | 1014.8 |
| 20260502023721 | 6 | 273 | 3.2 | 9.7 | 0.00 | 0.00 | 0.00 | 70 | 1014.8 |
| 20260502023217 | 6 | 309 | 3.2 | 9.7 | 0.00 | 0.00 | 0.00 | 70 | 1014.8 |
| 20260502022937 | 6 | 279 | 3.2 | 9.7 | 0.00 | 0.00 | 0.00 | 70 | 1014.8 |
| 20260502022204 | 6 | 302 | 4.8 | 11.3 | 0.00 | 0.00 | 0.00 | 70 | 1014.8 |
| 20260502021659 | 6 | 286 | 4.8 | 11.3 | 0.00 | 0.00 | 0.00 | 69 | 1014.8 |
| 20260502021636 | 6 | 257 | 4.8 | 12.9 | 0.00 | 0.00 | 0.00 | 69 | 1014.8 |
| 20260502020647 | 6 | 248 | 3.2 | 12.9 | 0.00 | 0.00 | 0.00 | 70 | 1014.7 |
| 20260502020136 | 6 | 298 | 3.2 | 8.0 | 0.00 | 0.00 | 0.00 | 70 | 1014.7 |
| 20260502015634 | 6 | 272 | 3.2 | 8.0 | 0.00 | 0.00 | 0.00 | 70 | 1014.6 |
| 20260502015129 | 6 | 277 | 4.8 | 11.3 | 0.00 | 0.00 | 0.00 | 69 | 1014.6 |
| 20260502014623 | 6 | 276 | 4.8 | 12.9 | 0.00 | 0.00 | 0.00 | 69 | 1014.6 |
| 20260502014339 | 6 | 301 | 4.8 | 12.9 | 0.00 | 0.00 | 0.00 | 69 | 1014.5 |
| 20260502014057 | 6 | 297 | 4.8 | 11.3 | 0.00 | 0.00 | 0.00 | 69 | 1014.5 |
| 20260502013328 | 6 | 288 | 3.2 | 11.3 | 0.00 | 0.00 | 0.00 | 68 | 1014.4 |
| 20260502012559 | 6 | 276 | 3.2 | 9.7 | 0.00 | 0.00 | 0.00 | 69 | 1014.4 |
| 20260502012052 | 6 | 262 | 3.2 | 8.0 | 0.00 | 0.00 | 0.00 | 69 | 1014.3 |
| 20260502011547 | 6 | 290 | 4.8 | 11.3 | 0.00 | 0.00 | 0.00 | 68 | 1014.3 |
| 20260502011516 | 6 | 255 | 4.8 | 11.3 | 0.00 | 0.00 | 0.00 | 68 | 1014.2 |
| 20260502010801 | 6 | 243 | 4.8 | 11.3 | 0.00 | 0.00 | 0.00 | 68 | 1014.2 |